Location: ?????
(55.6500°N, 37.2500°E)
Time: 03:05:31
(UTC+00:00)

Lacrosse 4 Rocket - Pass Details

Date: 19 May 2025
Orbit: 513 x 576 km, 68.0° (Epoch: 15 June)

Event Time Altitude Azimuth Distance (km) Brightness Sun altitude
Rises 18:42:09 0° 247° (WSW) 2,648 5.0 -6.7°
Reaches altitude 10° 18:44:26 10° 256° (WSW) 1,771 4.3 -6.9°
Maximum altitude 18:48:06 35° 324° (NW) 877 3.2 -7.2°
Drops below altitude 10° 18:51:50 10° 31° (NNE) 1,812 4.3 -7.5°
Sets 18:54:12 0° 41° (NE) 2,720 5.0 -7.7°
